カタログに戻る

STARLINK-37408

運用中通信VLEO
NORAD 69518·PAYLOAD·🇺🇸 United States

打ち上げ Jun 12, 2026 から Cape Canaveral Space Force Station

Loading…

次のパス (今後24時間)

TLE

最新Source: CelesTrak SupGP

元期: Sep 15, 2026, 04:14 UTC

1 69518C 26133L   26258.17687500 -.00048323  00000+0 -14278-2 0  2584
2 69518  53.1562 254.6333 0001315  89.2657   7.7987 15.34413449    13

AllMySatでSTARLINK-37408をリアルタイム追跡

Download on the App Store